Content
SEND FEEDBACK

Daily
Averages
Monthly
Summary
United States of America

LEBANON - UNIVERSITY MEDICAL CENTER, TENNESSEE


Home > North America > United States > Tennessee
Elevation: 535 feet     Latitude: 36 13N     Longitude: 086 20W

WEATHER
 
SELECT A DAY
Number of Records: 136,109;   Date Range: 1/1/95 - 12/25/14
 
SHARE

PRINT THIS DATA

[ ← Previous Day ]
WEATHER ALMANAC - JANUARY 31, 2013
[ Next Day → ]
[ °C ]   °F
Weather ElementAverageHighLow
Temperature37.9 °F46.9 °F (2:56 pm)32 °F (11:32 pm)
Dewpoint26.8 °F36 °F (9:56 pm)21 °F (2:56 am)
Humidity66.7 %93 % (10:21 pm)41 % (2:56 pm)
Barometer30.12 in30.22 in (10:56 pm)30.00 in (1:56 am)
Wind Speed12.9 mph23 mph (11:14 pm)
Wind Gust33.4 mph (10:56 pm)
Weather ElementAverage
Visibility7.8 mi
Wind DirectionWSW (259.6 °)

Weather ElementTotal
Precipitation---
Heating Degree Days25.6 (Base 65)
Averaged from 28 records on January 31, 2013
WEATHER CONDITIONS BREAKOUT
WIND DIRECTION BREAKOUT
WEATHER BY HOUR - JANUARY 31, 2013
[ °C ]   °F
Local TimeTemperatureDewpointHumidityBarometerVisibilityWind DirectionWind SpeedGust SpeedPrecipitationEventsConditions
1:56 AM34.9 °F25.2 °F68 %30.00 in10.0 miWNW (300°)13.8 mphOvercast
2:56 AM34.0 °F21.0 °F59 %30.02 in10.0 miWNW (290°)13.8 mphOvercast
3:56 AM34.0 °F22.1 °F62 %30.03 in10.0 miWNW (300°)9.2 mphOvercast
4:56 AM34.0 °F23.0 °F64 %30.04 in10.0 miWNW (300°)11.5 mph16.1 mphOvercast
5:56 AM32.9 °F23.0 °F67 %30.06 in10.0 miCalmMostly Cloudy
6:56 AM32.9 °F23.0 °F67 %30.09 in10.0 miWSW (250°)13.8 mphOvercast
7:56 AM32.9 °F23.0 °F67 %30.13 in10.0 miWest (260°)11.5 mphOvercast
8:56 AM34.9 °F23.0 °F62 %30.14 in10.0 miWSW (250°)13.8 mphScattered Clouds
9:56 AM36.9 °F23.0 °F57 %30.19 in10.0 miWest (270°)15.0 mphMostly Cloudy
10:56 AM38.8 °F23.0 °F53 %30.16 in10.0 miWSW (250°)10.4 mphClear
11:56 AM41.9 °F24.1 °F49 %30.16 in10.0 miWest (270°)15.0 mphClear
12:56 PM43.9 °F23.0 °F44 %30.12 in10.0 miWSW (250°)11.5 mph17.3 mphPartly Cloudy
2:56 PM46.9 °F24.1 °F41 %30.10 in10.0 miWSW (250°)17.3 mph23.0 mphClear
3:56 PM45.9 °F25.2 °F44 %30.08 in10.0 miSW (230°)9.2 mphClear
4:56 PM45.0 °F25.2 °F46 %30.09 in10.0 miWest (260°)13.8 mphOvercast
5:56 PM43.9 °F25.2 °F48 %30.11 in10.0 miWSW (250°)6.9 mphPartly Cloudy
6:56 PM43.0 °F26.1 °F51 %30.10 in10.0 miSW (220°)4.6 mphPartly Cloudy
7:56 PM41.9 °F27.1 °F56 %30.09 in10.0 miCalmMostly Cloudy
8:56 PM43.9 °F27.1 °F52 %30.11 in10.0 miWest (280°)9.2 mphPartly Cloudy
9:36 PM41.0 °F35.6 °F81 %30.12 in6.0 miWNW (290°)18.4 mph26.5 mph0.00 inRainLight Rain
9:56 PM39.9 °F36.0 °F86 %30.17 in6.0 miNW (310°)17.3 mph23.0 mph0.00 inRainRain
10:21 PM37.4 °F35.6 °F93 %30.15 in3.0 miNW (310°)15.0 mph28.8 mph0.00 inRainRain
10:56 PM34.0 °F32.0 °F92 %30.22 in1.8 miNW (310°)21.9 mph33.4 mph0.00 inRainLight Freezing Rain
11:04 PM33.8 °F32.0 °F93 %30.19 in1.2 miNW (320°)16.1 mph24.2 mph0.00 inRainLight Freezing Rain
11:14 PM33.8 °F32.0 °F93 %30.20 in1.0 miNW (320°)23.0 mph31.1 mph0.00 inRainLight Freezing Rain
11:20 PM33.8 °F30.2 °F87 %30.20 in1.5 miNW (310°)19.6 mph31.1 mph0.00 inRainLight Freezing Rain
11:32 PM32.0 °F30.2 °F93 %30.21 in2.0 miNW (310°)16.1 mph0.00 inOvercast
11:42 PM32.0 °F30.2 °F93 %30.21 in5.0 miNW (310°)13.8 mph0.00 inOvercast
Hourly data recorded from KMQY, located miles away from Lebanon - University Medical Center, Tennessee







STORIES FROM OUR PARTNERS